South Haven, MI

8:48 PM EST on January 24, 2017 (GMT -0500)
South Haven

Weather History for KLWA - October, 2011

Change the Weather History Date:

Saturday, October 29, 2011

  Actual Average (KBEH) Record (KBEH)
Temperature  
Mean Temperature 44 °F -  
Max Temperature 51 °F 59 °F 78 °F (1999)
Min Temperature 37 °F 37 °F 18 °F (1990)
Degree Days  
Heating Degree Days 21    
Moisture  
Dew Point 34 °F    
Average Humidity 69    
Maximum Humidity 87    
Minimum Humidity 47    
Precipitation  
Precipitation 0.00 in - - ()
Sea Level Pressure  
Sea Level Pressure 30.02 in    
Wind  
Wind Speed 5 mph (WSW)    
Max Wind Speed 12 mph    
Max Gust Speed 17 mph    
Visibility 10 miles    
Events Rain    
Averages and records for this station are not official NWS values.
T = Trace of Precipitation, MM = Missing Value Source: NWS Daily Summary

Daily Weather History Graph

Daily Weather History Graph

Search for Another Location

Airport or City:

Trip Planner

Search our weather history database for the weather conditions in past years. The results will help you decide how hot, cold, wet, or windy it might be!

Date:

Astronomy

Oct. 29, 2011 Rise Set
Actual Time 8:14 AM EDT 6:42 PM EDT
Civil Twilight 7:45 AM EDT 7:11 PM EDT
Nautical Twilight 7:12 AM EDT 7:44 PM EDT
Astronomical Twilight 6:39 AM EDT 8:17 PM EDT
Moon 11:39 AM EDT (10/29) 9:01 PM EDT (10/29)
Length of Visible Light 11h 26m
Length of Day
10h 28m
Waxing Crescent, 11% of the Moon is Illuminated
Oct 29
Waxing Crescent
Nov 2
First Quarter
Nov 10
Full
Nov 18
Last Quarter
Nov 25
New

Hourly Weather History & Observations

Time (EDT) Temp. Windchill Dew Point Humidity Pressure Visibility Wind Dir Wind Speed Gust Speed Precip Events Conditions
12:16 AM 37.4 °F 33.8 °F 33.8 °F 87% 30.04 in 10.0 mi SSE 4.6 mph - N/A   Mostly Cloudy
12:36 AM 37.4 °F 32.8 °F 33.8 °F 87% 30.04 in 10.0 mi SSE 5.8 mph - N/A   Overcast
12:56 AM 37.4 °F 32.8 °F 33.8 °F 87% 30.03 in 10.0 mi South 5.8 mph - N/A   Overcast
1:16 AM 39.2 °F 35.9 °F 33.8 °F 81% 30.03 in 10.0 mi SSW 4.6 mph - N/A   Overcast
1:36 AM 39.2 °F 35.9 °F 33.8 °F 81% 30.02 in 10.0 mi South 4.6 mph - N/A   Overcast
1:56 AM 41.0 °F 38.0 °F 33.8 °F 76% 30.02 in 10.0 mi South 4.6 mph - N/A   Overcast
2:16 AM 41.0 °F 38.0 °F 33.8 °F 76% 30.02 in 10.0 mi South 4.6 mph - N/A   Overcast
2:36 AM 41.0 °F 37.1 °F 33.8 °F 76% 30.01 in 10.0 mi South 5.8 mph - N/A   Overcast
2:56 AM 41.0 °F 36.4 °F 33.8 °F 76% 30.01 in 10.0 mi SSW 6.9 mph - N/A   Overcast
3:16 AM 42.8 °F 41.1 °F 33.8 °F 70% 30.01 in 10.0 mi SW 3.5 mph - N/A   Overcast
3:36 AM 41.0 °F 39.0 °F 33.8 °F 76% 30.01 in 10.0 mi South 3.5 mph - N/A   Overcast
3:56 AM 41.0 °F - 33.8 °F 76% 30.01 in 10.0 mi Calm Calm - N/A   Overcast
4:36 AM 41.0 °F 36.4 °F 35.6 °F 81% 29.99 in 10.0 mi SSE 6.9 mph - N/A Rain Light Rain
4:55 AM 41.0 °F 37.1 °F 35.6 °F 81% 29.99 in 10.0 mi South 5.8 mph - N/A   Overcast
5:16 AM 41.0 °F 38.0 °F 33.8 °F 76% 29.99 in 10.0 mi South 4.6 mph - N/A Rain Light Rain
5:36 AM 41.0 °F 37.1 °F 35.6 °F 81% 29.99 in 10.0 mi South 5.8 mph - N/A   Drizzle
6:16 AM 41.0 °F 38.0 °F 35.6 °F 81% 29.99 in 10.0 mi SSW 4.6 mph - N/A   Overcast
6:36 AM 41.0 °F 38.0 °F 35.6 °F 81% 29.99 in 10.0 mi SSW 4.6 mph - N/A   Mostly Cloudy
6:56 AM 39.2 °F 37.0 °F 33.8 °F 81% 29.98 in 10.0 mi SSW 3.5 mph - N/A   Mostly Cloudy
7:16 AM 39.2 °F 35.9 °F 33.8 °F 81% 29.98 in 10.0 mi SSW 4.6 mph - N/A   Mostly Cloudy
7:36 AM 39.2 °F 37.0 °F 33.8 °F 81% 29.99 in 10.0 mi South 3.5 mph - N/A   Mostly Cloudy
7:56 AM 37.4 °F 34.9 °F 33.8 °F 87% 29.99 in 10.0 mi South 3.5 mph - N/A   Mostly Cloudy
8:16 AM 37.4 °F 34.9 °F 33.8 °F 87% 29.99 in 10.0 mi South 3.5 mph - N/A   Mostly Cloudy
8:35 AM 37.4 °F 34.9 °F 33.8 °F 87% 29.99 in 10.0 mi South 3.5 mph - N/A   Mostly Cloudy
8:56 AM 37.4 °F 33.8 °F 33.8 °F 87% 29.99 in 10.0 mi South 4.6 mph - N/A   Mostly Cloudy
9:16 AM 41.0 °F 38.0 °F 33.8 °F 76% 30.00 in 10.0 mi South 4.6 mph - N/A   Mostly Cloudy
9:36 AM 41.0 °F 38.0 °F 35.6 °F 81% 30.00 in 10.0 mi South 4.6 mph - N/A   Mostly Cloudy
9:56 AM 42.8 °F 41.1 °F 35.6 °F 76% 30.01 in 10.0 mi SSW 3.5 mph - N/A   Mostly Cloudy
10:16 AM 44.6 °F - 37.4 °F 76% 30.01 in 10.0 mi Calm Calm - N/A   Mostly Cloudy
10:36 AM 44.6 °F - 37.4 °F 76% 30.01 in 10.0 mi Calm Calm - N/A   Scattered Clouds
11:16 AM 50.0 °F - 37.4 °F 62% 30.02 in 10.0 mi NNW 4.6 mph - N/A   Scattered Clouds
11:36 AM 50.0 °F - 35.6 °F 58% 30.02 in 10.0 mi NNW 9.2 mph - N/A   Scattered Clouds
11:55 AM 51.8 °F - 35.6 °F 54% 30.03 in 10.0 mi NNW 10.4 mph - N/A   Clear
12:16 PM 51.8 °F - 33.8 °F 50% 30.03 in 10.0 mi NW 9.2 mph - N/A   Clear
12:36 PM 51.8 °F - 33.8 °F 50% 30.03 in 10.0 mi NW 6.9 mph - N/A   Clear
12:56 PM 51.8 °F - 33.8 °F 50% 30.03 in 10.0 mi NNW 4.6 mph - N/A   Clear
1:16 PM 51.8 °F - 33.8 °F 50% 30.03 in 10.0 mi NW 6.9 mph - N/A   Clear
1:36 PM 51.8 °F - 35.6 °F 54% 30.03 in 10.0 mi WNW 9.2 mph - N/A   Clear
1:56 PM 51.8 °F - 35.6 °F 54% 30.03 in 10.0 mi WNW 10.4 mph - N/A   Clear
2:16 PM 51.8 °F - 33.8 °F 50% 30.03 in 10.0 mi NW 11.5 mph 17.3 mph N/A   Clear
2:35 PM 51.8 °F - 33.8 °F 50% 30.03 in 10.0 mi WNW 9.2 mph 16.1 mph N/A   Clear
2:56 PM 51.8 °F - 33.8 °F 50% 30.03 in 10.0 mi NNW 10.4 mph - N/A   Clear
3:16 PM 51.8 °F - 35.6 °F 54% 30.03 in 10.0 mi WNW 10.4 mph - N/A   Clear
3:36 PM 51.8 °F - 35.6 °F 54% 30.03 in 10.0 mi NW 9.2 mph - N/A   Clear
3:56 PM 51.8 °F - 32.0 °F 47% 30.03 in 10.0 mi NW 6.9 mph - N/A   Clear
4:15 PM 51.8 °F - 32.0 °F 47% 30.03 in 10.0 mi NW 9.2 mph - N/A   Clear
4:36 PM 51.8 °F - 32.0 °F 47% 30.04 in 10.0 mi NNW 10.4 mph - N/A   Scattered Clouds
4:56 PM 50.0 °F - 32.0 °F 50% 30.04 in 10.0 mi NW 6.9 mph - N/A   Scattered Clouds
5:15 PM 51.8 °F - 35.6 °F 54% 30.05 in 10.0 mi NW 6.9 mph - N/A   Mostly Cloudy
5:36 PM 51.8 °F - 33.8 °F 50% 30.05 in 10.0 mi NW 9.2 mph - N/A   Overcast
6:16 PM 46.4 °F 45.2 °F 33.8 °F 62% 30.06 in 10.0 mi NW 3.5 mph - N/A   Clear
6:36 PM 46.4 °F 45.2 °F 33.8 °F 62% 30.07 in 10.0 mi NW 3.5 mph - N/A   Scattered Clouds
6:56 PM 46.4 °F 45.2 °F 33.8 °F 62% 30.07 in 10.0 mi NNW 3.5 mph - N/A   Scattered Clouds
7:16 PM 44.6 °F - 33.8 °F 66% 30.07 in 10.0 mi Calm Calm - N/A   Clear
7:36 PM 41.0 °F - 33.8 °F 76% 30.07 in 10.0 mi Calm Calm - N/A   Clear
7:56 PM 39.2 °F - 33.8 °F 81% 30.08 in 7.0 mi Calm Calm - N/A   Clear
8:16 PM 37.4 °F - 33.8 °F 87% 30.09 in 10.0 mi Calm Calm - N/A   Scattered Clouds
8:36 PM 35.6 °F - 33.8 °F 93% 30.09 in 10.0 mi Calm Calm - N/A   Clear
8:56 PM 35.6 °F - 33.8 °F 93% 30.10 in 10.0 mi Calm Calm - N/A   Clear
9:16 PM 35.6 °F - 33.8 °F 93% 30.10 in 10.0 mi Calm Calm - N/A   Clear
9:36 PM 33.8 °F - 32.0 °F 93% 30.10 in 10.0 mi Calm Calm - N/A   Clear
9:56 PM 33.8 °F - 32.0 °F 93% 30.11 in 10.0 mi Calm Calm - N/A   Clear
10:16 PM 33.8 °F - 32.0 °F 93% 30.11 in 10.0 mi Calm Calm - N/A   Clear
10:35 PM 33.8 °F - 32.0 °F 93% 30.12 in 10.0 mi Calm Calm - N/A   Clear
10:56 PM 32.0 °F - 32.0 °F 100% 30.12 in 7.0 mi Calm Calm - N/A   Clear
11:15 PM 32.0 °F - 32.0 °F 100% 30.12 in 10.0 mi Calm Calm - N/A   Clear
11:36 PM 32.0 °F - 32.0 °F 100% 30.12 in 7.0 mi Calm Calm - N/A   Clear
11:56 PM 32.0 °F - 32.0 °F 100% 30.12 in 7.0 mi Calm Calm - N/A   Clear